Find OneWeb SL0455

NORAD ID: 51645 Int'l Des: 2022-012 Owner: ONEWEBN Country: UK Constellation: oneweb operational
LEOCIRCULARPOLAR

Aktuelle Ansicht

3D-Globus wird geladen...

Über OneWeb SL0455

Beschreibung wird geladen...

Nächste Überflüge

Passes for default location (London). Set your location on the main map for personalized predictions.

Höhenverlauf

Loading altitude history...

Zweizeiliger Elementsatz

1 51645U 22012Z 26146.40145208 .00000290 00000-0 11928-3 0 9996
2 51645 87.5262 278.4754 0015929 208.3090 151.7237 14.23629455223046
Epoch: 26. Mai 2026 • Age: 13 hours

Aktueller Status

Höhe 837.2 km
Geschwindigkeit 7.43 km/s
Subsatellitenpunkt -60.95°S, 46.71°E
Startdatum 10. Feb. 2022
Alter 4.2 years
Typ internet

Technische Details

Klassifizierung Payload
Masse 148.00 kg
Trockenmasse 140.00 kg
Gesamtmasse 148.00 kg
Länge 1.30 m
Durchmesser 1.00 m
Spannweite 5.00 m
Form Trapezoid+2 pan
Hersteller ONEWUS
Bus-Typ ARROW
Phasenstatus In Orbit
Besitzer/Staat ONEWEBN/UK

Most Searched